Location: Treviso
(45.6669°N, 12.2430°E)
Time: 15:17:15
(UTC+02:00)

CUBESAT XI-V - Pass Details

Date: 28 April 2019
Orbit: 668 x 694 km, 98.0° (Epoch: 23 May)

Event Time Altitude Azimuth Distance (km) Brightness Sun altitude
Exits shadow 02:55:25 17° 121° (ESE) 1,707 ? -25.6°
Maximum altitude 02:58:18 32° 68° (ENE) 1,163 ? -25.4°
Drops below altitude 10° 03:02:27 10° 5° (N) 2,135 ? -25.0°
Sets 03:04:52 0° 356° (N) 3,051 ? -24.8°
